Millville, NJ

12:52 AM EST on February 25, 2017 (GMT -0500)
Millville Municipal

Weather History for KMIV - January, 2014

Change the Weather History Date:

Saturday, January 4, 2014

  Actual Average Record
Temperature  
Mean Temperature 12 °F -  
Max Temperature 30 °F 42 °F 69 °F (1998)
Min Temperature -6 °F 26 °F -6 °F (2014)
Degree Days  
Heating Degree Days 53    
Moisture  
Dew Point 6 °F    
Average Humidity 78    
Maximum Humidity 92    
Minimum Humidity 47    
Precipitation  
Precipitation 0.00 in - - ()
Sea Level Pressure  
Sea Level Pressure 30.45 in    
Wind  
Wind Speed 1 mph (South)    
Max Wind Speed 9 mph    
Max Gust Speed -    
Visibility 10 miles    
Events      
Averages and records for this station are not official NWS values.
T = Trace of Precipitation, MM = Missing Value Source: NWS Daily Summary

Daily Weather History Graph

Daily Weather History Graph

Search for Another Location

Airport or City:

Trip Planner

Search our weather history database for the weather conditions in past years. The results will help you decide how hot, cold, wet, or windy it might be!

Date:

Astronomy

Jan. 04, 2014 Rise Set
Actual Time 7:20 AM EST 4:50 PM EST
Civil Twilight 6:50 AM EST 5:20 PM EST
Nautical Twilight 6:17 AM EST 5:53 PM EST
Astronomical Twilight 5:44 AM EST 6:26 PM EST
Moon 9:25 AM EST (1/4) 9:05 PM EST (1/4)
Length of Visible Light 10h 29m
Length of Day
9h 29m
Waxing Crescent, 15% of the Moon is Illuminated
Jan 4
Waxing Crescent
Jan 7
First Quarter
Jan 15
Full
Jan 24
Last Quarter
Jan 30
New

Hourly Weather History & Observations

Time (EST) Temp. Windchill Dew Point Humidity Pressure Visibility Wind Dir Wind Speed Gust Speed Precip Events Conditions
12:54 AM -4.0 °F - -6.0 °F 91% 30.50 in 10.0 mi Calm Calm - N/A   Clear
1:54 AM -2.0 °F - -5.1 °F 87% 30.50 in 10.0 mi Calm Calm - N/A   Clear
2:54 AM -6.0 °F - -9.0 °F 87% 30.51 in 10.0 mi Calm Calm - N/A   Clear
3:54 AM -2.9 °F - -6.0 °F 87% 30.51 in 10.0 mi Calm Calm - N/A   Clear
4:54 AM -6.0 °F - -9.0 °F 87% 30.52 in 10.0 mi Calm Calm - N/A   Clear
5:54 AM -6.0 °F - -8.0 °F 91% 30.53 in 10.0 mi Calm Calm - N/A   Clear
6:54 AM -6.0 °F - -8.0 °F 91% 30.55 in 10.0 mi Calm Calm - N/A   Clear
7:54 AM -6.0 °F - -8.0 °F 91% 30.56 in 10.0 mi Calm Calm - N/A   Clear
8:54 AM 1.9 °F - -0.0 °F 91% 30.57 in 10.0 mi Calm Calm - N/A   Clear
9:54 AM 14.0 °F 8.2 °F 8.1 °F 77% 30.56 in 10.0 mi ENE 3.5 mph - N/A   Clear
10:54 AM 25.0 °F 18.1 °F 8.1 °F 49% 30.52 in 10.0 mi Variable 5.8 mph - N/A   Clear
11:54 AM 27.0 °F 18.0 °F 10.9 °F 51% 30.48 in 10.0 mi SSW 9.2 mph - N/A   Clear
12:54 PM 28.9 °F 23.9 °F 10.9 °F 47% 30.44 in 10.0 mi Variable 4.6 mph - N/A   Clear
1:54 PM 28.9 °F 22.8 °F 12.9 °F 51% 30.43 in 10.0 mi SSW 5.8 mph - N/A   Clear
2:54 PM 30.0 °F 25.2 °F 15.1 °F 54% 30.41 in 10.0 mi Variable 4.6 mph - N/A   Clear
3:54 PM 30.0 °F 26.5 °F 16.0 °F 56% 30.39 in 10.0 mi Variable 3.5 mph - N/A   Clear
4:54 PM 28.9 °F - 17.1 °F 61% 30.38 in 10.0 mi Calm Calm - N/A   Clear
5:54 PM 19.9 °F - 15.1 °F 81% 30.36 in 10.0 mi Calm Calm - N/A   Clear
6:54 PM 14.0 °F - 12.0 °F 92% 30.36 in 10.0 mi Calm Calm - N/A   Clear
7:54 PM 12.0 °F - 10.0 °F 92% 30.37 in 10.0 mi Calm Calm - N/A   Clear
8:54 PM 17.1 °F - 14.0 °F 88% 30.35 in 10.0 mi Calm Calm - N/A   Clear
9:54 PM 19.9 °F - 17.1 °F 89% 30.33 in 10.0 mi Calm Calm - N/A   Clear
10:54 PM 19.0 °F - 17.1 °F 92% 30.33 in 10.0 mi Calm Calm - N/A   Clear
11:54 PM 19.0 °F - 17.1 °F 92% 30.30 in 10.0 mi Calm Calm - N/A   Clear